EW1620 Weather Reports


Display with metric or nautical units.
time (UTC)temp
F
wind
direction
speed
MPH
gust
MPH
rain 1hr
in
rain 24hr
in
rain mn
in
humidity
%
barometer
mb
20260906214522 50 249 1.0 4.0 0.00 0.02 0.02 89 1025.6
20260906214023 50 283 0.0 6.0 0.00 0.02 0.02 89 1025.6
20260906213526 50 202 0.0 6.0 0.00 0.02 0.02 88 1025.5
20260906213018 49 199 1.0 6.0 0.00 0.02 0.02 89 1025.4
20260906212518 49 288 0.0 3.0 0.00 0.02 0.02 88 1025.3
20260906212017 49 219 0.0 3.0 0.00 0.02 0.02 88 1025.3
20260906211533 49 219 0.0 3.0 0.00 0.02 0.02 88 1025.3
20260906211017 49 207 1.0 3.0 0.00 0.02 0.02 88 1025.2
20260906210515 49 273 0.0 2.0 0.00 0.02 0.02 87 1025.1
20260906210021 49 273 0.0 2.0 0.00 0.02 0.02 87 1025.0
20260906205512 49 275 0.0 4.0 0.00 0.02 0.02 87 1025.0
20260906205011 49 281 0.0 3.0 0.00 0.02 0.02 87 1024.9
20260906204511 49 280 0.0 4.0 0.00 0.02 0.02 87 1024.9
20260906204009 50 280 1.0 4.0 0.00 0.02 0.02 87 1024.8
20260906203509 50 243 1.0 3.0 0.01 0.02 0.02 87 1024.9
20260906203007 50 231 1.0 3.0 0.01 0.02 0.02 87 1024.9
20260906202509 50 251 0.0 3.0 0.02 0.02 0.02 87 1024.8
20260906202009 50 215 0.0 2.0 0.02 0.02 0.02 87 1024.8
20260906201517 50 215 0.0 2.0 0.02 0.02 0.02 87 1024.7
20260906201003 51 215 0.0 3.0 0.02 0.02 0.02 87 1024.6
20260906200505 51 215 1.0 3.0 0.02 0.02 0.02 87 1024.6
20260906200003 51 236 0.0 1.0 0.02 0.02 0.02 87 1024.5
20260906195503 51 259 0.0 1.0 0.02 0.02 0.02 87 1024.4
20260906195002 51 259 0.0 2.0 0.02 0.02 0.02 87 1024.3
20260906194502 51 259 0.0 2.0 0.02 0.02 0.02 86 1024.3
20260906194001 51 257 0.0 3.0 0.02 0.02 0.02 86 1024.4
20260906193501 51 257 1.0 4.0 0.02 0.02 0.02 86 1024.3
20260906193101 51 281 1.0 4.0 0.01 0.01 0.01 86 1024.3
20260906192559 51 256 0.0 3.0 0.00 0.00 0.00 85 1024.3
20260906192103 51 265 1.0 3.0 0.00 0.00 0.00 85 1024.2
20260906191055 51 269 1.0 3.0 0.00 0.00 0.00 84 1024.1
20260906190555 51 290 0.0 3.0 0.00 0.00 0.00 84 1024.1
20260906190055 51 275 0.0 3.0 0.00 0.00 0.00 84 1024.0
20260906185654 51 276 0.0 3.0 0.00 0.00 0.00 84 1024.0
20260906185052 51 269 1.0 4.0 0.00 0.00 0.00 84 1023.8
20260906184554 51 283 1.0 3.0 0.00 0.00 0.00 84 1023.7
20260906184055 51 262 0.0 3.0 0.00 0.00 0.00 83 1023.8
20260906183551 51 263 1.0 7.0 0.00 0.00 0.00 83 1023.8
20260906183053 51 274 1.0 7.0 0.00 0.00 0.00 83 1023.8
20260906182553 51 296 0.0 4.0 0.00 0.00 0.00 83 1023.7
20260906182049 51 277 0.0 2.0 0.00 0.00 0.00 82 1023.7
20260906181049 51 275 0.0 1.0 0.00 0.00 0.00 81 1023.4
20260906180549 51 275 0.0 2.0 0.00 0.00 0.00 81 1023.5
20260906180106 51 275 0.0 2.0 0.00 0.00 0.00 81 1023.5
20260906175548 52 277 0.0 1.0 0.00 0.00 0.00 81 1023.4
20260906175047 52 277 0.0 1.0 0.00 0.00 0.00 81 1023.3
20260906174556 52 277 0.0 2.0 0.00 0.00 0.00 81 1023.2
20260906174046 52 277 0.0 4.0 0.00 0.00 0.00 81 1023.2
20260906173545 52 265 1.0 4.0 0.00 0.00 0.00 81 1023.1
20260906173045 52 267 1.0 7.0 0.00 0.00 0.00 81 1023.2
20260906172543 52 254 3.0 9.0 0.00 0.00 0.00 81 1023.2
20260906172043 53 286 2.0 6.0 0.00 0.00 0.00 81 1023.2
20260906171046 53 258 1.0 2.0 0.00 0.00 0.00 81 1023.2
20260906170545 53 221 0.0 3.0 0.00 0.00 0.00 81 1023.2
20260906170047 53 250 1.0 3.0 0.00 0.00 0.00 81 1023.3
20260906165546 53 250 0.0 1.0 0.00 0.00 0.00 81 1023.2
20260906165044 53 250 0.0 1.0 0.00 0.00 0.00 81 1023.4
20260906164543 53 250 0.0 2.0 0.00 0.00 0.00 81 1023.4
20260906164044 53 243 0.0 2.0 0.00 0.00 0.00 81 1023.4
20260906163542 53 243 0.0 2.0 0.00 0.00 0.00 80 1023.4
20260906163042 53 243 0.0 2.0 0.00 0.00 0.00 80 1023.4
20260906162542 53 243 0.0 2.0 0.00 0.00 0.00 80 1023.4
20260906162043 53 243 0.0 3.0 0.00 0.00 0.00 80 1023.5
20260906161039 53 232 0.0 2.0 0.00 0.00 0.00 79 1023.5
20260906160540 53 232 0.0 2.0 0.00 0.00 0.00 79 1023.5
20260906160039 53 250 0.0 3.0 0.00 0.00 0.00 79 1023.5
20260906155538 53 250 1.0 3.0 0.00 0.00 0.00 79 1023.6
20260906155041 53 229 0.0 3.0 0.00 0.00 0.00 78 1023.5
20260906154539 54 215 0.0 1.0 0.00 0.00 0.00 78 1023.6
20260906154037 54 215 0.0 0.0 0.00 0.00 0.00 78 1023.7
20260906153537 54 215 0.0 1.0 0.00 0.00 0.00 78 1023.7
20260906153048 54 215 0.0 1.0 0.00 0.00 0.00 78 1023.7
20260906152535 54 215 0.0 1.0 0.00 0.00 0.00 78 1023.6
20260906152033 54 215 0.0 1.0 0.00 0.00 0.00 78 1023.6
20260906151032 54 215 0.0 1.0 0.00 0.00 0.00 78 1023.6
20260906150532 54 215 0.0 3.0 0.00 0.00 0.00 78 1023.6
20260906150035 54 215 0.0 3.0 0.00 0.00 0.00 78 1023.6
20260906145531 54 217 0.0 2.0 0.00 0.00 0.00 78 1023.6
20260906145031 54 217 0.0 3.0 0.00 0.00 0.00 78 1023.6
20260906144532 54 216 1.0 3.0 0.00 0.00 0.00 78 1023.4
20260906144029 54 196 0.0 3.0 0.00 0.00 0.00 78 1023.4
20260906143531 54 279 0.0 2.0 0.00 0.00 0.00 78 1023.5
20260906143036 54 279 0.0 1.0 0.00 0.00 0.00 78 1023.3
20260906142527 54 279 0.0 2.0 0.00 0.00 0.00 78 1023.3
20260906142028 54 279 0.0 2.0 0.00 0.00 0.00 79 1023.3
20260906141029 54 279 0.0 3.0 0.00 0.00 0.00 79 1023.3
20260906140528 54 279 1.0 3.0 0.00 0.00 0.00 79 1023.3
20260906140033 54 278 0.0 2.0 0.00 0.00 0.00 79 1023.3
20260906135528 54 278 0.0 2.0 0.00 0.00 0.00 79 1023.2
20260906135028 54 278 0.0 2.0 0.00 0.00 0.00 79 1023.2
20260906134527 54 278 0.0 2.0 0.00 0.00 0.00 79 1023.1
20260906134028 54 278 0.0 2.0 0.00 0.00 0.00 79 1023.3
20260906133533 54 278 0.0 1.0 0.00 0.00 0.00 79 1023.3
20260906133029 54 278 0.0 2.0 0.00 0.00 0.00 79 1023.4
20260906132528 54 278 0.0 2.0 0.00 0.00 0.00 79 1023.4
20260906132027 54 278 0.0 1.0 0.00 0.00 0.00 79 1023.4
20260906131025 54 278 0.0 1.0 0.00 0.00 0.00 79 1023.6
20260906130525 54 278 0.0 1.0 0.00 0.00 0.00 79 1023.6
20260906130024 54 278 0.0 1.0 0.00 0.00 0.00 79 1023.6
20260906125524 55 278 0.0 1.0 0.00 0.00 0.00 79 1023.6
20260906125025 55 278 0.0 1.0 0.00 0.00 0.00 79 1023.6
20260906124524 55 278 0.0 1.0 0.00 0.00 0.00 79 1023.6
20260906124024 55 278 0.0 1.0 0.00 0.00 0.00 79 1023.6
20260906123524 55 278 0.0 1.0 0.00 0.00 0.00 79 1023.6
20260906123037 55 278 0.0 1.0 0.00 0.00 0.00 79 1023.6
20260906122524 55 278 0.0 1.0 0.00 0.00 0.00 79 1023.6
20260906122024 55 278 0.0 2.0 0.00 0.00 0.00 79 1023.6
20260906121022 55 278 0.0 4.0 0.00 0.00 0.00 79 1023.6
20260906120522 55 278 2.0 6.0 0.00 0.00 0.00 79 1023.6
20260906120022 55 281 2.0 6.0 0.00 0.00 0.00 79 1023.7
20260906115523 55 293 2.0 4.0 0.00 0.00 0.00 79 1023.7
20260906115023 55 261 1.0 3.0 0.00 0.00 0.00 79 1023.7
20260906114523 55 257 1.0 3.0 0.00 0.00 0.00 79 1023.7
20260906114021 55 273 1.0 4.0 0.00 0.00 0.00 79 1023.6
20260906113522 55 275 0.0 4.0 0.00 0.00 0.00 79 1023.6
20260906113020 55 292 1.0 4.0 0.00 0.00 0.00 79 1023.6
20260906112524 55 275 0.0 4.0 0.00 0.00 0.00 79 1023.6
20260906112020 55 288 0.0 4.0 0.00 0.00 0.00 79 1023.5
20260906111019 55 277 1.0 4.0 0.00 0.00 0.00 79 1023.5
20260906110520 55 272 1.0 3.0 0.00 0.00 0.00 79 1023.5
20260906110020 55 256 0.0 5.0 0.00 0.00 0.00 79 1023.5
20260906105519 55 252 2.0 5.0 0.00 0.00 0.00 79 1023.5
20260906105019 56 261 1.0 7.0 0.00 0.00 0.00 78 1023.3
20260906104520 56 267 2.0 7.0 0.00 0.00 0.00 78 1023.4
20260906104018 56 267 2.0 5.0 0.00 0.00 0.00 77 1023.4
20260906103517 56 272 1.0 7.0 0.00 0.00 0.00 77 1023.3
20260906103018 56 254 3.0 5.0 0.00 0.00 0.00 77 1023.3
20260906102519 56 259 1.0 4.0 0.00 0.00 0.00 76 1023.3
20260906102017 56 272 2.0 6.0 0.00 0.00 0.00 75 1023.4
20260906101018 56 246 1.0 7.0 0.00 0.00 0.00 75 1023.2
20260906100521 56 253 3.0 7.0 0.00 0.00 0.00 75 1023.1
20260906100022 57 211 0.0 5.0 0.00 0.00 0.00 74 1023.2
20260906095518 57 227 2.0 9.0 0.00 0.00 0.00 74 1023.2
20260906095018 57 263 2.0 10.0 0.00 0.00 0.00 74 1023.2
20260906094517 57 263 4.0 10.0 0.00 0.00 0.00 73 1023.1
20260906094016 57 256 2.0 10.0 0.00 0.00 0.00 72 1022.9
20260906093519 57 247 3.0 10.0 0.00 0.00 0.00 71 1022.9
20260906093030 57 253 1.0 3.0 0.00 0.00 0.00 71 1023.0
20260906092515 57 273 1.0 4.0 0.00 0.00 0.00 71 1022.8
20260906092020 57 255 2.0 7.0 0.00 0.00 0.00 70 1022.8
20260906091013 57 271 2.0 7.0 0.00 0.00 0.00 70 1022.6
20260906090512 57 229 1.0 4.0 0.00 0.00 0.00 70 1022.6
20260906090032 58 247 1.0 6.0 0.00 0.00 0.00 69 1022.5
20260906085511 58 265 2.0 6.0 0.00 0.00 0.00 69 1022.4
20260906085010 58 236 1.0 7.0 0.00 0.00 0.00 69 1022.4
20260906084512 58 263 2.0 7.0 0.00 0.00 0.00 69 1022.4
20260906084009 58 286 2.0 6.0 0.00 0.00 0.00 69 1022.3
20260906083509 58 257 2.0 8.0 0.00 0.00 0.00 68 1022.2
20260906083009 58 193 2.0 8.0 0.00 0.00 0.00 68 1022.2
20260906082510 58 216 1.0 4.0 0.00 0.00 0.00 68 1022.2
20260906082012 58 219 1.0 4.0 0.00 0.00 0.00 68 1022.2
20260906081011 58 209 1.0 3.0 0.00 0.00 0.00 67 1022.0
20260906080512 58 207 1.0 4.0 0.00 0.00 0.00 67 1022.0
20260906080011 58 201 0.0 6.0 0.00 0.00 0.00 67 1021.9
20260906075510 59 239 2.0 6.0 0.00 0.00 0.00 67 1021.9
20260906075010 59 256 1.0 8.0 0.00 0.00 0.00 67 1021.9
20260906074510 59 255 3.0 8.0 0.00 0.00 0.00 67 1021.9
20260906074009 59 237 0.0 9.0 0.00 0.00 0.00 67 1021.8
20260906073509 59 236 2.0 10.0 0.00 0.00 0.00 66 1021.7
20260906073008 59 279 2.0 8.0 0.00 0.00 0.00 66 1021.6
20260906072508 59 259 0.0 8.0 0.00 0.00 0.00 66 1021.6
20260906072012 59 251 3.0 11.0 0.00 0.00 0.00 67 1021.6
20260906071010 59 215 4.0 11.0 0.00 0.00 0.00 66 1021.6
20260906070510 59 265 3.0 10.0 0.00 0.00 0.00 66 1021.6
20260906070006 60 293 2.0 10.0 0.00 0.01 0.00 66 1021.6
20260906065510 60 259 4.0 8.0 0.00 0.01 0.00 66 1021.5
20260906065006 60 250 2.0 8.0 0.00 0.01 0.00 66 1021.4
20260906064506 60 242 2.0 10.0 0.00 0.01 0.00 66 1021.3
20260906064006 60 267 5.0 11.0 0.00 0.01 0.00 66 1021.3
20260906063506 60 262 3.0 11.0 0.00 0.01 0.00 65 1021.2
20260906063006 61 271 4.0 11.0 0.00 0.01 0.00 64 1021.1
20260906062505 61 283 4.0 8.0 0.00 0.01 0.00 65 1021.1
20260906062006 62 280 4.0 8.0 0.00 0.01 0.00 63 1021.0
20260906061008 62 227 4.0 10.0 0.00 0.01 0.00 63 1021.0
20260906060508 62 251 2.0 10.0 0.00 0.01 0.00 63 1021.0
20260906060008 62 229 2.0 11.0 0.00 0.03 0.00 62 1021.0
20260906055512 63 257 4.0 11.0 0.00 0.03 0.00 61 1021.1
20260906055008 63 233 3.0 9.0 0.00 0.03 0.00 60 1021.0
20260906054507 64 257 4.0 10.0 0.00 0.03 0.00 59 1021.0
20260906054007 64 268 3.0 10.0 0.00 0.03 0.00 60 1020.9
20260906053507 65 190 3.0 7.0 0.00 0.03 0.00 60 1020.9
20260906053008 65 245 3.0 11.0 0.00 0.03 0.00 59 1020.9
20260906052507 65 238 5.0 12.0 0.00 0.03 0.00 58 1020.8
20260906052008 65 269 4.0 9.0 0.00 0.03 0.00 60 1020.8
20260906051005 65 215 3.0 10.0 0.00 0.03 0.00 60 1020.8
20260906050506 65 277 4.0 12.0 0.00 0.03 0.00 61 1020.7
20260906050004 65 254 6.0 12.0 0.00 0.03 0.00 61 1020.7
20260906045502 64 209 3.0 8.0 0.00 0.03 0.00 62 1020.6
20260906045005 64 236 2.0 8.0 0.00 0.03 0.00 63 1020.5
20260906044501 64 242 4.0 8.0 0.00 0.03 0.00 64 1020.5
20260906044103 63 254 3.0 8.0 0.00 0.03 0.00 63 1020.5
20260906043600 63 253 3.0 7.0 0.00 0.03 0.00 63 1020.5
20260906043103 63 227 3.0 7.0 0.00 0.03 0.00 63 1020.5
20260906042559 63 244 2.0 7.0 0.00 0.03 0.00 63 1020.6
20260906042058 63 258 3.0 7.0 0.00 0.03 0.00 65 1020.6
20260906041056 62 271 0.0 3.0 0.00 0.03 0.00 64 1020.6
20260906040556 62 291 0.0 6.0 0.00 0.03 0.00 64 1020.7
20260906040055 62 269 2.0 9.0 0.00 0.03 0.00 64 1020.7
20260906035554 62 249 3.0 9.0 0.00 0.03 0.00 64 1020.7
20260906035054 62 299 0.0 5.0 0.00 0.03 0.00 65 1020.7
20260906034617 62 286 3.0 6.0 0.00 0.03 0.00 65 1020.7
20260906034053 62 248 0.0 3.0 0.00 0.03 0.00 66 1020.7
20260906033553 62 202 1.0 4.0 0.00 0.03 0.00 65 1020.7
20260906033054 62 280 2.0 5.0 0.00 0.03 0.00 65 1020.6
20260906032552 62 257 2.0 5.0 0.00 0.03 0.00 65 1020.6
20260906032052 62 229 2.0 5.0 0.00 0.03 0.00 66 1020.6
20260906031053 62 217 2.0 5.0 0.00 0.03 0.00 67 1020.7
20260906030551 62 290 1.0 7.0 0.00 0.03 0.00 70 1020.8
20260906030051 61 265 2.0 7.0 0.00 0.03 0.00 69 1020.8
20260906025549 61 244 1.0 5.0 0.00 0.03 0.00 69 1020.9
20260906025050 61 267 2.0 5.0 0.00 0.03 0.00 69 1021.0
20260906024546 61 278 1.0 4.0 0.00 0.03 0.00 68 1021.0
20260906024045 61 305 0.0 4.0 0.00 0.03 0.00 69 1021.0
20260906023545 60 215 1.0 4.0 0.00 0.03 0.00 69 1021.1
20260906023042 60 181 1.0 3.0 0.00 0.03 0.00 70 1021.1
20260906022543 60 248 1.0 6.0 0.00 0.03 0.00 70 1021.2
20260906022040 60 205 1.0 7.0 0.00 0.03 0.00 71 1021.3
20260906021046 59 199 1.0 7.0 0.00 0.03 0.00 71 1021.5
20260906020542 60 257 2.0 7.0 0.00 0.03 0.00 72 1021.5
20260906020041 59 219 2.0 7.0 0.00 0.03 0.00 72 1021.5
20260906015540 59 280 3.0 7.0 0.00 0.03 0.00 71 1021.6
20260906015041 59 298 2.0 4.0 0.00 0.03 0.00 72 1021.6
20260906014540 59 244 0.0 5.0 0.00 0.03 0.00 73 1021.6
20260906014038 59 186 2.0 6.0 0.00 0.03 0.00 73 1021.6
20260906013538 59 186 2.0 6.0 0.00 0.03 0.00 74 1021.6
20260906013056 59 207 0.0 3.0 0.00 0.03 0.00 74 1021.6
20260906012536 59 213 1.0 3.0 0.00 0.03 0.00 74 1021.6
20260906012036 58 201 0.0 3.0 0.00 0.03 0.00 74 1021.6
20260906011032 58 205 1.0 4.0 0.00 0.03 0.00 74 1021.6
20260906010532 58 207 1.0 4.0 0.00 0.03 0.00 74 1021.7
20260906010032 58 241 1.0 4.0 0.00 0.04 0.00 74 1021.7
20260906005530 58 285 1.0 5.0 0.00 0.04 0.00 75 1021.6
20260906005030 58 232 2.0 5.0 0.00 0.04 0.00 75 1021.6
20260906004529 58 264 1.0 4.0 0.00 0.04 0.00 75 1021.5
20260906004027 57 207 1.0 4.0 0.00 0.04 0.00 76 1021.5
20260906003526 57 225 0.0 6.0 0.00 0.04 0.00 76 1021.5
20260906003025 57 192 1.0 6.0 0.00 0.04 0.00 77 1021.5
20260906002524 57 219 0.0 4.0 0.00 0.04 0.00 77 1021.4
20260906002023 57 213 2.0 4.0 0.00 0.04 0.00 77 1021.3
20260906001021 57 277 3.0 7.0 0.00 0.04 0.00 77 1021.3
20260906000520 57 159 2.0 6.0 0.00 0.04 0.00 77 1021.2
20260906000019 57 187 1.0 4.0 0.00 0.04 0.00 78 1021.2
20260905235518 56 221 1.0 9.0 0.00 0.04 0.00 78 1021.0
20260905235019 56 215 2.0 9.0 0.00 0.04 0.00 78 1021.0
20260905234516 56 199 2.0 7.0 0.00 0.04 0.00 78 1021.0
20260905234016 56 250 2.0 6.0 0.00 0.04 0.00 79 1021.0
20260905233517 56 236 3.0 7.0 0.00 0.04 0.00 79 1021.0
20260905233016 56 248 1.0 8.0 0.00 0.04 0.00 79 1021.0
20260905232515 56 279 3.0 8.0 0.00 0.04 0.00 79 1020.9
20260905232014 56 257 3.0 8.0 0.00 0.04 0.00 80 1020.8
20260905231011 56 277 4.0 8.0 0.00 0.04 0.00 82 1020.7
20260905230511 55 266 2.0 5.0 0.00 0.04 0.00 84 1020.6
20260905230014 54 268 2.0 7.0 0.00 0.04 0.00 84 1020.6
20260905225507 54 255 3.0 9.0 0.00 0.04 0.00 84 1020.6
20260905225007 54 243 1.0 4.0 0.00 0.04 0.00 84 1020.6
20260905224506 54 261 1.0 4.0 0.00 0.04 0.00 85 1020.6
20260905224005 53 245 2.0 7.0 0.00 0.04 0.00 85 1020.6
20260905223503 53 273 1.0 7.0 0.00 0.04 0.00 85 1020.5
20260905223002 53 261 2.0 6.0 0.00 0.04 0.00 86 1020.4
20260905222502 53 260 1.0 7.0 0.00 0.04 0.00 86 1020.3
20260905222059 53 257 2.0 8.0 0.00 0.04 0.00 86 1020.2
20260905221004 53 236 2.0 7.0 0.00 0.04 0.00 86 1019.9
20260905220502 52 254 0.0 5.0 0.00 0.04 0.00 86 1019.9
20260905220002 52 259 1.0 4.0 0.00 0.04 0.00 86 1019.8
20260905215501 52 248 0.0 4.0 0.00 0.04 0.00 87 1019.7
20260905215101 52 178 1.0 4.0 0.00 0.04 0.00 86 1019.7
20260905214604 52 225 0.0 3.0 0.00 0.04 0.00 86 1019.6